GEFSNE_500_meanwind_270.txt.gz
Wind_Speed
16 16 17 17 17 17 17 16 16 17 17 17 17 18 18 18 18 18 18 19 19 19 19 19 19 18 18 19 19 19 19 18 17 17 16 16 16 15
16 15 16 16 16 16 17 17 17 17 18 18 19 19 20 20 20 20 20 20 20 20 21 21 21 20 20 19 19 19 19 19 18 18 17 17 17 16
16 15 15 15 15 16 16 17 17 18 19 20 20 20 21 20 20 20 20 20 21 21 21 21 21 22 22 21 21 20 20 20 20 19 18 18 18 18
15 16 15 15 15 15 17 17 17 18 19 20 20 20 20 20 20 20 20 20 21 21 20 21 21 20 20 21 22 22 22 22 22 21 21 21 20 20
15 16 16 16 16 16 17 17 17 18 19 19 18 18 19 20 20 21 21 21 21 21 21 21 21 21 22 22 23 23 24 24 24 24 24 23 23 22
17 17 17 17 17 17 18 18 18 19 19 19 19 19 20 20 20 21 21 21 21 22 22 22 23 23 23 23 24 24 24 25 25 25 25 25 25 25
18 18 19 19 19 19 19 19 19 19 20 20 20 20 21 21 21 21 22 22 22 23 23 23 24 24 24 24 24 25 25 25 26 26 26 26 27 27
19 19 20 20 19 19 19 20 20 21 21 21 21 21 21 21 22 22 22 22 23 23 24 24 24 24 24 25 25 26 26 25 25 26 26 26 26 27
20 20 20 20 20 20 20 20 21 21 21 22 21 21 21 22 22 22 22 22 22 23 24 24 25 25 26 26 27 27 27 26 26 27 27 28 27 28
20 20 21 21 21 21 21 21 22 22 23 23 23 22 21 22 22 23 24 24 24 25 25 25 26 27 27 27 27 28 28 28 28 28 29 29 29 29
21 21 21 21 22 22 22 22 23 23 23 24 23 23 23 23 24 24 25 26 26 26 27 27 27 28 28 28 29 29 30 30 31 31 31 31 31 31
22 23 22 22 23 23 23 23 23 24 24 24 24 24 24 25 25 26 26 27 27 27 28 29 29 30 29 29 29 30 31 31 32 32 32 32 32 33
24 24 24 24 24 25 25 25 25 26 25 25 25 26 26 27 27 28 28 29 29 29 29 30 31 31 31 30 30 31 31 31 32 32 33 33 33 34
25 25 25 26 25 25 25 26 26 26 27 26 26 27 27 28 29 30 29 29 29 29 30 31 31 31 31 31 31 32 32 32 32 33 33 33 34 34
25 26 26 27 26 26 26 26 26 26 26 27 27 28 29 30 30 30 30 31 31 31 31 32 32 32 32 32 32 32 32 32 33 34 35 35 35 35
26 26 27 27 27 27 27 27 28 27 27 27 28 29 29 30 31 31 31 31 32 32 32 32 32 33 33 33 33 33 33 34 34 35 35 36 36 36
27 27 27 27 28 28 28 28 29 29 29 29 30 30 30 30 31 31 32 32 32 32 33 33 33 33 33 33 33 34 35 35 36 37 37 37 36 36
29 28 28 29 29 29 29 30 30 30 30 30 31 32 32 32 32 32 32 33 33 33 34 34 34 34 34 34 35 35 36 37 38 38 39 39 38 38
29 29 29 30 30 30 30 31 31 31 32 32 33 33 33 34 34 34 34 35 34 35 35 36 36 36 36 36 37 37 37 38 39 39 40 39 39 39
30 30 30 31 31 31 31 32 32 33 33 33 34 34 34 35 35 36 36 36 36 36 37 37 37 38 38 38 38 38 39 39 39 40 39 39 38 39
31 30 31 31 32 32 33 33 33 34 34 35 35 36 36 36 36 36 36 36 37 38 38 38 37 38 38 39 38 38 39 40 40 40 40 40 40 40
31 31 32 32 33 33 33 34 35 35 36 36 36 36 36 36 36 37 37 37 37 37 37 38 38 38 38 39 38 39 39 40 40 41 41 41 42 42
34 34 33 33 34 34 35 35 36 36 36 37 37 37 37 38 38 38 38 38 38 38 38 39 40 40 40 40 40 40 41 41 42 42 43 43 44 44

GEFSNE_500_meanwind_276.txt.gz
Wind_Speed
16 17 17 17 17 18 18 17 18 18 18 18 18 18 18 18 18 18 18 18 18 18 18 19 19 19 19 19 20 20 20 20 20 19 19 18 18 18
17 17 17 17 17 18 18 18 18 18 18 17 17 18 18 19 18 18 19 19 19 19 20 20 20 20 20 21 21 22 22 21 21 21 20 20 19 19
17 17 17 17 17 17 18 18 18 18 18 18 18 18 18 19 19 20 20 20 20 20 20 20 20 21 21 22 22 22 22 22 22 21 21 21 20 19
17 17 17 17 17 17 18 18 18 19 18 18 19 19 19 20 20 21 21 21 21 21 21 21 21 21 22 22 22 22 23 23 23 24 23 23 21 20
17 17 17 17 17 18 19 19 19 19 19 19 19 19 20 21 21 21 21 22 22 22 22 22 21 21 22 23 23 23 23 24 24 23 23 24 24 23
17 17 17 18 18 19 19 19 19 20 20 20 21 20 20 20 21 21 21 22 22 22 23 23 23 22 23 23 23 24 24 24 24 24 24 24 25 25
18 18 18 19 19 19 19 19 19 20 20 21 21 21 21 21 21 22 22 22 22 23 23 23 23 23 24 24 24 25 25 24 24 24 25 25 26 26
18 18 18 18 19 19 20 20 20 21 22 22 22 22 22 21 21 22 22 22 22 23 24 24 24 24 25 25 26 26 26 26 26 26 26 27 28 28
19 19 19 19 20 20 20 21 21 22 23 22 21 21 22 22 22 22 22 23 23 24 25 25 25 26 26 26 26 27 27 28 28 29 29 29 29 29
19 19 20 20 20 20 20 21 22 22 22 22 22 23 23 23 23 23 24 24 24 25 25 25 25 26 27 27 27 28 28 29 30 31 31 31 32 32
20 20 20 20 21 21 21 21 22 22 23 23 23 24 24 24 24 24 24 25 25 25 27 27 27 28 28 28 28 29 30 30 30 30 31 31 32 32
21 21 22 22 22 23 23 23 23 23 24 24 24 25 25 25 26 25 26 27 27 27 28 29 29 30 29 29 29 30 30 30 31 31 31 32 32 32
23 23 23 24 25 25 25 24 24 25 25 25 25 25 26 26 27 27 28 28 29 29 30 30 30 30 30 30 30 31 31 31 32 32 32 32 32 32
25 25 25 26 26 26 27 27 26 26 26 26 26 26 26 26 27 27 29 30 30 30 29 30 30 30 31 31 31 32 32 32 32 32 32 32 33 33
27 27 27 27 28 28 28 28 28 27 27 27 26 27 27 28 29 29 29 30 30 30 30 31 31 32 32 32 32 32 33 33 33 32 32 33 33 34
29 29 29 29 29 29 29 29 29 28 28 28 27 27 28 29 29 30 31 31 31 32 32 32 33 33 33 32 32 33 33 33 33 34 33 34 34 35
30 31 30 30 30 30 30 30 30 30 29 29 28 29 29 29 30 31 31 32 33 33 33 33 33 34 34 34 34 34 34 34 34 34 35 35 36 36
31 31 31 31 32 32 32 31 31 31 31 31 31 31 31 31 31 31 32 32 33 33 33 34 34 35 36 35 35 35 36 36 36 37 37 37 38 38
33 33 33 33 33 33 33 32 32 32 32 32 32 33 33 33 33 33 33 33 33 33 34 35 36 36 36 36 36 37 37 38 38 38 38 39 39 40
34 34 33 34 34 34 34 34 33 33 33 33 33 34 35 35 35 35 36 36 35 36 36 36 36 37 37 37 37 38 38 38 38 38 39 40 41 41
34 34 34 34 34 34 34 34 34 34 34 35 35 36 36 36 36 36 36 37 37 37 37 38 38 38 38 39 39 39 39 40 40 41 41 41 41 41
35 34 34 35 34 34 34 35 35 35 35 36 36 37 37 37 37 37 37 37 37 37 38 39 39 40 40 40 40 40 40 41 42 42 42 42 42 42
35 34 34 35 35 36 36 36 37 37 37 37 38 38 38 38 37 37 37 38 38 39 39 40 40 40 41 41 42 42 41 41 42 42 43 43 44 44

GEFSNE_500_meanwind_282.txt.gz
Wind_Speed
16 16 17 17 17 17 17 17 18 18 18 18 19 19 19 19 19 19 19 19 18 18 18 18 18 19 19 18 18 18 19 19 19 19 19 19 19 19
15 16 16 17 17 17 18 17 18 18 18 19 19 20 20 20 20 19 19 19 20 20 19 19 19 19 19 19 18 18 18 19 19 19 19 19 19 20
17 17 17 17 17 17 17 17 18 18 18 18 18 19 19 20 20 20 20 20 21 21 21 20 20 20 19 19 19 19 19 19 19 20 20 21 20 20
17 17 18 18 18 18 18 18 18 18 19 19 19 19 19 20 21 21 21 21 21 21 20 20 20 20 20 20 20 19 19 19 20 20 21 21 21 21
19 19 18 18 18 18 18 18 18 18 19 19 19 20 20 20 21 21 21 21 21 21 21 20 20 20 20 20 20 20 20 20 20 21 21 21 21 21
19 19 19 18 18 18 18 18 19 19 19 20 20 20 21 21 21 21 21 21 21 21 21 21 21 21 21 21 21 21 21 21 22 22 22 23 23 24
19 19 19 19 18 18 18 19 19 20 20 20 21 21 21 22 21 21 21 21 22 22 22 22 22 22 22 22 22 22 22 23 23 24 24 25 25 26
18 19 19 18 18 19 19 19 20 20 21 21 21 22 22 22 22 22 22 22 23 23 23 23 23 23 23 23 23 23 23 24 25 26 26 26 27 27
19 19 19 19 19 19 20 21 21 21 22 22 22 22 23 23 23 23 23 23 23 24 24 24 24 24 24 25 25 25 25 25 26 27 28 28 29 30
20 20 20 20 19 20 20 21 21 22 22 23 23 23 23 23 23 24 24 24 24 25 26 26 26 26 26 27 27 27 27 28 28 29 29 30 31 31
22 21 21 21 21 21 21 22 22 22 23 23 24 24 24 23 23 24 25 26 26 26 27 27 28 28 29 29 29 29 29 30 30 30 31 31 32 32
23 23 23 23 23 24 24 24 24 24 24 24 24 24 24 24 25 25 26 26 27 27 28 29 29 30 30 30 31 31 31 32 32 32 33 33 33 33
25 25 25 25 25 26 26 25 25 25 25 25 25 25 25 25 26 26 27 28 29 29 30 31 31 31 32 31 32 32 32 33 33 34 34 34 34 34
26 26 27 27 27 27 26 26 26 27 27 27 27 27 26 27 27 27 28 29 30 30 31 31 31 32 33 33 33 33 33 33 34 34 35 34 34 34
27 27 28 29 28 28 27 27 28 28 28 28 28 28 28 28 28 29 29 30 30 31 32 33 33 33 33 33 34 34 34 34 35 35 34 34 35 35
29 29 29 29 29 29 29 29 29 29 29 29 29 30 30 31 31 30 30 31 32 32 33 34 34 34 33 34 34 35 35 34 34 34 35 35 36 36
30 29 29 30 30 30 30 29 30 30 30 30 30 31 31 32 32 32 32 33 33 34 34 34 35 35 35 35 35 35 35 35 34 35 35 36 36 37
30 30 30 30 31 31 30 30 30 31 31 32 32 32 32 32 33 33 33 33 34 34 34 34 35 35 35 35 35 35 35 36 36 36 36 36 37 38
30 30 31 31 31 31 31 31 32 32 32 33 33 33 34 34 34 34 34 34 34 35 35 35 35 35 35 35 35 36 37 37 38 38 38 38 38 38
31 32 32 32 32 33 33 33 34 34 34 34 35 34 35 35 35 35 35 36 35 35 35 35 35 35 36 36 37 37 38 38 38 38 39 39 39 39
32 32 32 32 33 34 34 34 35 35 35 35 35 35 35 35 35 35 36 36 36 36 35 35 35 36 36 37 38 38 39 39 39 39 40 40 40 40
32 32 33 33 34 34 35 34 35 35 35 35 35 35 35 35 35 35 35 35 36 36 36 36 36 37 38 39 39 40 40 40 40 41 41 41 40 40
32 32 32 33 33 34 35 34 34 34 34 34 34 35 35 35 34 35 35 36 36 36 37 37 38 38 39 40 40 40 41 41 41 40 40 41 41 42

GEFSNE_500_meanwind_288.txt.gz
Wind_Speed
15 16 17 17 17 17 18 18 18 17 16 17 17 17 17 17 17 17 17 16 17 17 17 17 17 16 16 16 16 16 16 16 16 16 16 15 15 16
16 16 16 17 17 17 17 18 18 18 18 18 18 18 18 17 16 17 17 17 18 18 18 17 17 17 17 17 17 18 17 17 16 16 16 15 15 15
17 17 17 17 17 18 18 18 18 18 18 18 18 18 18 18 18 18 18 18 18 19 19 19 18 18 18 18 18 18 17 17 17 17 16 15 15 15
18 18 18 18 18 18 19 19 19 18 19 19 19 19 19 19 18 19 19 19 20 20 19 19 19 19 19 19 18 18 18 18 18 18 18 17 16 17
19 19 19 19 19 19 20 20 20 19 19 19 19 18 19 19 19 19 20 20 21 21 21 20 20 20 20 19 19 19 19 19 19 19 19 18 18 18
20 20 20 20 20 20 20 21 21 21 20 19 19 19 19 19 20 20 20 21 22 22 22 21 21 20 20 20 20 20 20 20 20 20 20 20 20 20
21 21 21 21 21 21 20 21 21 21 21 20 20 20 20 21 21 21 21 22 22 22 23 23 22 22 21 21 21 21 21 21 21 21 21 22 22 22
21 21 22 22 21 21 20 20 21 21 21 21 21 21 21 22 22 22 22 22 22 23 23 23 23 23 22 22 22 22 22 22 22 22 23 23 23 24
21 21 21 22 22 22 22 22 22 22 22 22 22 22 23 23 23 23 23 23 23 24 24 23 24 23 23 23 23 23 23 23 23 24 25 25 26 26
21 21 21 22 23 23 23 23 23 23 23 23 23 23 24 24 24 24 24 24 24 25 25 24 24 24 24 24 25 25 25 25 25 26 27 27 27 28
22 22 22 22 23 24 24 24 23 23 24 24 24 24 25 25 25 25 25 25 25 25 26 26 25 25 25 25 26 27 27 27 28 29 29 29 30 30
23 24 24 24 24 24 25 25 24 24 25 26 25 25 26 26 26 26 26 26 26 26 26 27 27 26 26 26 27 28 29 29 30 30 31 31 32 32
25 25 25 25 25 25 26 26 26 26 26 26 26 26 27 27 27 27 27 27 27 27 28 28 28 28 28 28 29 29 30 30 31 32 32 33 33 33
25 25 26 26 26 26 26 27 27 26 26 26 27 27 27 28 28 29 29 29 29 29 29 29 30 30 30 30 30 30 31 31 32 32 33 33 34 34
27 27 27 27 27 27 27 27 27 27 28 28 28 28 28 28 29 29 30 30 31 31 31 31 31 31 31 31 31 32 32 32 33 33 33 34 35 35
28 29 29 28 28 28 28 28 28 28 28 29 29 30 30 30 30 30 30 31 32 32 32 32 33 33 33 33 32 32 33 33 33 33 34 34 36 36
29 29 29 29 29 29 29 29 29 30 30 29 29 30 31 31 31 31 31 32 32 31 32 33 34 34 34 34 34 33 33 33 33 34 35 35 35 36
29 29 29 29 29 29 29 29 30 30 30 30 30 30 31 32 32 32 32 32 32 32 32 33 34 35 35 35 35 35 35 35 35 35 36 36 36 36
30 30 29 29 29 29 29 30 30 31 31 31 31 32 32 32 32 33 33 33 33 33 33 34 34 35 35 35 34 35 36 36 36 36 37 37 37 37
31 30 30 31 31 31 31 31 31 32 32 32 32 32 32 33 33 33 33 34 34 34 34 34 34 34 35 35 34 35 36 36 36 37 38 38 38 39
32 32 32 31 31 31 32 32 32 32 32 32 33 33 33 33 33 34 34 34 33 33 33 33 34 34 34 35 35 35 35 36 37 38 38 39 39 38
33 33 32 32 32 32 32 33 33 32 32 32 33 33 33 33 34 34 34 34 33 33 34 34 34 34 35 35 36 36 36 37 38 39 39 40 39 38
33 33 32 32 32 32 32 32 33 32 32 33 34 34 34 34 34 33 33 33 33 34 34 35 35 35 36 36 36 36 37 37 38 39 39 39 39 39

GEFSNE_500_meanwind_294.txt.gz
Wind_Speed
16 16 16 16 16 16 16 17 17 17 17 18 18 18 17 17 17 16 16 16 16 16 16 17 17 17 16 16 16 16 16 16 16 16 16 17 16 16
17 17 17 17 18 18 18 17 17 18 18 17 18 18 18 18 18 17 17 17 17 17 17 17 17 17 17 17 17 17 17 17 17 16 16 16 16 17
18 18 19 19 19 19 19 19 19 19 18 18 19 19 19 19 18 18 18 18 18 18 18 18 18 17 17 17 18 18 18 18 18 17 17 17 16 16
19 19 20 20 20 19 20 20 20 19 19 19 19 19 19 19 20 19 19 19 19 19 19 19 19 18 18 18 18 18 18 18 19 18 18 18 17 17
20 20 20 20 20 20 20 21 21 20 20 20 20 20 20 20 20 20 20 20 19 19 20 19 20 19 19 19 19 19 19 19 19 19 19 19 19 19
21 21 21 21 21 21 21 21 22 22 22 21 21 21 21 21 21 21 21 21 20 20 20 20 20 20 21 21 20 20 20 20 20 21 20 20 20 20
21 22 22 22 22 22 22 22 23 23 23 23 23 22 22 22 22 22 22 22 22 22 22 21 21 21 21 21 21 22 22 21 22 22 22 21 22 22
22 22 23 23 23 23 23 23 23 23 24 23 23 23 22 22 22 23 23 22 22 23 23 23 22 23 23 23 23 23 23 23 23 23 23 23 23 24
23 23 23 24 24 24 24 24 24 24 24 24 23 23 24 23 23 23 24 24 24 24 24 24 24 24 24 25 25 25 24 25 25 25 24 25 25 25
24 24 24 24 24 24 24 24 25 24 24 25 24 24 24 24 24 24 24 25 25 24 25 25 25 26 26 26 26 26 27 26 26 26 27 27 27 27
24 25 25 24 24 24 24 24 25 25 25 25 25 25 25 25 25 26 26 26 25 25 26 26 26 26 27 27 28 28 28 28 28 28 28 28 29 28
25 26 26 26 26 25 25 25 26 27 27 26 26 26 26 26 26 26 26 26 26 26 27 27 27 27 27 28 28 29 29 29 29 29 30 30 30 30
27 27 27 27 27 27 27 27 27 27 27 26 27 27 27 27 27 27 27 27 26 26 27 28 28 28 28 29 29 29 30 30 31 32 31 32 32 32
28 28 28 28 28 28 28 27 27 27 27 27 27 27 28 28 29 29 29 29 28 28 28 29 29 29 29 29 30 30 31 31 32 32 33 33 34 34
28 29 29 28 28 28 27 27 27 27 27 27 28 28 28 29 29 30 29 30 30 29 30 30 30 30 31 31 31 31 32 32 33 33 34 34 35 35
30 29 29 29 29 28 28 28 28 28 28 28 28 28 28 28 29 30 30 30 31 30 31 31 31 31 32 32 32 32 33 34 34 34 35 35 35 36
30 30 30 30 29 29 28 28 28 28 28 28 28 28 28 28 29 29 30 30 31 31 31 32 32 33 33 34 34 34 35 35 36 37 37 37 37 37
31 31 30 30 30 30 29 29 29 29 28 28 29 29 30 30 31 31 31 31 31 32 32 33 34 35 35 35 36 36 37 37 37 37 37 37 37 38
31 31 31 31 31 30 30 30 30 30 30 29 29 30 31 32 32 32 32 33 33 33 34 35 35 36 36 36 36 37 37 36 37 37 37 37 37 37
32 33 32 32 32 31 31 31 30 30 30 30 30 31 31 32 32 33 33 33 34 34 34 35 35 35 36 36 36 35 36 36 37 37 36 37 36 37
33 33 34 33 33 32 32 32 32 32 31 31 31 32 32 32 32 32 33 34 34 35 35 35 36 37 37 36 35 35 36 37 37 36 36 37 37 37
34 34 34 33 33 34 34 33 33 33 33 33 33 33 33 33 33 33 33 34 34 35 36 36 37 37 36 36 35 35 36 36 36 37 37 37 37 37
34 34 34 34 34 34 34 33 33 34 34 34 34 35 35 34 34 34 35 36 36 36 36 35 35 35 35 36 35 36 36 36 37 38 38 39 39 39

GEFSNE_500_meanwind_300.txt.gz
Wind_Speed
16 17 17 18 18 18 18 19 18 18 18 18 18 19 18 18 18 18 18 18 19 19 19 19 19 18 18 18 17 18 18 17 17 17 17 16 16 15
18 18 19 19 19 20 20 20 20 19 19 19 19 19 19 19 19 19 18 18 19 18 19 19 19 18 18 18 17 17 17 17 17 17 16 16 17 16
19 19 20 20 21 21 21 21 21 21 20 19 19 20 20 20 20 20 19 19 19 19 19 19 19 19 18 18 17 17 17 17 17 17 17 17 17 17
21 21 21 21 22 22 22 22 22 21 21 20 20 20 20 20 20 20 20 21 21 20 20 20 19 19 19 18 18 18 17 18 18 18 18 18 18 18
22 22 22 22 22 22 22 23 23 22 22 21 21 20 20 20 20 20 20 21 21 21 21 21 21 20 20 20 20 19 19 19 18 19 18 18 19 19
22 23 23 23 23 23 23 23 23 23 23 22 22 21 21 21 21 21 22 22 22 22 22 22 21 21 21 21 20 20 20 20 19 19 19 19 20 20
23 24 24 24 24 24 24 24 24 23 23 23 23 22 23 23 23 23 23 23 23 22 22 22 22 22 21 21 21 21 21 21 21 20 20 20 21 21
25 25 25 25 25 25 25 25 24 24 24 24 24 24 24 24 24 25 24 24 23 23 23 23 24 23 23 23 23 22 22 22 22 22 22 22 22 22
26 26 26 26 26 26 26 26 26 26 26 26 26 26 25 25 25 25 25 25 25 25 25 25 25 25 24 24 24 24 23 23 24 24 24 23 23 23
27 28 28 28 28 27 27 28 28 28 27 28 28 27 27 27 26 26 26 26 26 25 25 25 25 26 25 25 25 25 25 25 25 25 25 25 25 25
29 29 29 29 29 29 29 29 29 29 29 28 28 28 28 28 27 27 27 27 26 26 26 26 26 26 26 26 25 26 26 26 27 27 27 27 27 27
29 30 30 30 31 30 30 29 29 29 29 28 28 28 28 28 28 27 27 27 27 27 27 27 27 27 27 27 27 27 27 27 27 28 28 28 28 29
30 29 29 30 30 30 30 29 29 29 29 29 29 29 28 28 28 28 27 27 27 27 27 27 27 27 28 27 27 28 28 28 29 29 30 30 30 30
29 29 29 29 29 29 29 29 29 29 29 30 30 30 29 28 28 28 28 27 27 27 26 27 28 28 28 28 28 28 29 29 30 30 31 31 31 32
30 29 29 29 29 29 29 29 30 30 30 30 30 29 29 29 29 28 28 27 27 27 27 27 28 28 28 28 29 29 30 30 31 31 31 32 32 32
31 30 30 30 30 30 30 30 30 30 30 30 30 30 30 30 29 29 29 28 28 28 28 28 28 28 28 28 29 30 31 31 32 33 33 33 33 33
32 31 32 31 30 30 30 30 30 30 30 30 30 30 30 30 30 30 29 29 29 29 29 29 29 29 30 30 30 31 32 33 33 34 34 34 34 34
33 33 32 32 31 30 30 31 31 31 31 30 30 31 31 31 31 31 31 31 31 30 31 31 31 30 30 30 31 31 33 34 35 35 36 36 35 36
34 33 33 32 32 32 32 32 32 32 32 31 31 31 31 31 31 31 32 31 31 31 31 31 32 32 31 32 32 33 34 35 36 36 36 36 36 37
34 33 33 33 33 33 33 33 33 34 34 33 32 32 32 32 32 32 32 32 32 32 32 32 33 33 33 33 33 34 35 35 35 36 37 38 38 38
33 33 34 34 34 34 34 34 34 34 34 34 33 33 32 32 33 33 33 33 33 33 33 34 34 34 34 34 34 35 36 36 36 36 37 37 37 37
33 33 34 35 35 34 34 34 33 33 33 33 33 33 33 33 33 33 33 34 34 34 34 35 35 35 35 35 35 36 37 37 37 37 37 37 37 37
32 33 33 34 35 35 35 34 34 34 34 34 34 34 34 34 34 34 34 34 35 35 36 36 36 36 36 36 36 37 37 37 37 38 38 38 38 38

GEFSNE_500_meanwind_306.txt.gz
Wind_Speed
17 17 17 18 18 18 19 19 18 18 19 19 19 20 20 20 19 20 20 20 19 19 19 19 19 19 19 19 19 19 19 19 18 18 17 17 18 18
19 19 19 19 19 20 20 20 20 20 20 21 21 20 20 20 20 20 20 20 20 20 20 19 20 20 20 20 20 20 20 19 19 18 18 18 18 17
21 21 21 21 21 21 21 21 22 22 22 22 22 21 21 21 21 20 20 20 20 21 21 21 21 21 21 21 21 20 20 20 19 19 19 19 19 18
21 21 21 21 21 22 22 22 23 23 23 23 23 23 22 22 22 21 21 21 21 22 22 22 21 21 21 21 21 21 21 21 20 19 19 18 18 18
23 23 23 23 23 23 23 24 24 24 24 24 24 24 23 23 23 22 22 22 22 23 22 22 22 22 22 21 21 22 22 21 21 20 20 19 19 19
24 25 25 25 25 25 25 25 25 25 25 25 25 25 25 24 24 23 23 23 23 23 23 23 23 22 22 22 22 22 21 21 21 21 21 20 20 20
25 26 26 26 26 26 26 26 26 26 26 26 26 26 26 25 25 24 24 24 24 24 24 24 24 23 23 23 22 22 22 22 22 22 22 21 22 21
26 26 26 26 26 27 27 27 27 27 27 27 27 27 27 27 26 26 26 26 25 25 25 25 25 24 24 24 24 23 23 23 23 23 23 23 23 23
27 26 27 27 27 27 27 27 27 27 27 27 27 27 28 28 28 28 27 27 26 26 27 27 27 26 26 25 24 24 24 24 24 24 24 24 24 24
27 28 28 27 27 27 27 27 26 26 26 26 26 26 27 28 28 28 28 28 28 27 27 27 27 27 27 26 26 26 26 25 25 25 25 25 25 25
29 29 29 29 28 28 28 27 26 26 26 26 26 27 28 28 28 29 28 28 28 28 28 27 27 27 26 26 27 27 27 26 26 26 25 26 26 26
29 29 29 30 30 29 29 28 28 28 27 27 27 27 28 28 28 29 29 28 28 29 29 28 28 27 27 27 27 27 27 27 27 27 27 26 27 27
30 30 30 30 30 30 29 29 29 29 28 28 28 28 28 28 28 29 29 29 29 28 28 29 28 28 27 27 28 28 28 28 28 28 27 27 27 27
31 31 31 30 30 30 29 29 29 29 29 28 28 28 28 28 28 29 29 29 28 28 28 28 28 28 27 27 27 28 29 29 29 29 29 29 29 29
33 32 31 31 31 31 31 30 30 29 29 28 28 28 28 28 28 29 29 29 28 28 28 28 28 28 28 28 28 28 29 30 30 30 30 30 30 31
33 32 32 32 32 32 32 31 31 30 29 29 29 29 29 29 29 29 29 30 29 29 29 29 28 28 28 28 28 29 29 29 30 31 31 31 32 32
33 33 33 33 32 32 32 32 32 31 31 30 30 30 29 30 30 30 30 30 30 29 29 29 30 30 29 28 29 29 29 30 30 31 32 32 32 33
32 32 32 32 32 32 32 32 32 32 32 32 31 30 30 30 30 30 30 31 30 30 31 31 30 31 30 29 29 29 30 31 31 32 32 33 33 33
33 33 32 33 33 33 32 32 32 32 33 33 32 32 31 31 31 32 32 31 31 31 31 32 32 32 32 32 31 31 31 32 32 33 33 34 34 34
33 33 33 33 33 33 33 32 32 33 33 34 34 33 33 33 33 32 32 32 32 32 32 32 33 33 33 33 32 33 33 33 34 34 34 35 36 36
32 32 32 32 32 32 32 33 33 33 33 34 34 34 34 34 33 33 33 33 33 33 34 34 34 33 33 33 34 34 35 35 35 36 36 37 37 37
31 31 31 31 31 31 32 32 33 33 33 33 34 34 34 34 33 33 34 33 33 34 34 35 35 34 34 34 34 35 36 37 37 37 37 38 38 38
30 30 30 31 31 32 31 31 32 32 33 33 34 34 34 34 34 34 34 34 34 34 35 35 35 36 35 36 36 36 37 37 38 38 39 39 39 39